sat.trackr.live / text

‹ back to catalog

STARLINK-6053

NORAD 56466 · 2023-064U

PAYLOAD ACTIVE UNKNOWN

§ Identity

Operator
Country
US
Launch date
2023-05-10
Launch site
AFWTR
Launch vehicle
Mass (kg)
RCS (m²)

Purposes: comms

External: N2YO · Heavens-Above · Gunter

§ Orbital elements

Epoch: 2026-05-25T03:48:26.658432Z

Period
96.11 min
Inclination
69.9993°
Eccentricity
0.0003042
Mean motion
14.98339961 rev/d
Perigee alt
569.9 km
Apogee alt
574.1 km
Semi-major
6,950.2 km
B*
7.0125e-5
RAAN
311.5156°
Arg perigee
272.3785°
Mean anomaly
87.7026°
Rev number
16,669

§ Raw data

STARLINK-60531 56466U 23064U   26145.15864188  .00000744  00000+0  70125-4 0  99942 56466  69.9993 311.5156 0003042 272.3785  87.7026 14.98339961166690

JSON: /api/v1/satellites/56466 · /tle

For live sub-satellite position, see the globe view (requires WebGL).

§ Visibility from observer

Set your observer location to see the next 7 days of passes ≥ 10°. The values pass through the URL so the page stays shareable.

No JS? Fill the form by hand. The geolocation button needs JavaScript.